Location: DaltonSkyGazer Observatory
(42.4858°N, 73.1565°W)
Time: 22:29:49
(UTC-04:00)

Helios 1B - Visible Passes

Search period start: 02 September 2015 00:00
Search period end: 12 September 2015 00:00
Orbit: 623 x 625 km, 98.1° (Epoch: 02 September)

Date Brightness Start Highest point End Pass type
(mag) Time Alt. Az. Time Alt. Az. Time Alt. Az.
02 Sep 7.5 23:52:56 14° N 23:52:56 14° N 23:53:33 10° N visible
04 Sep 7.7 00:11:47 12° NNW 00:11:47 12° NNW 00:12:05 10° NNW visible
04 Sep 7.5 22:53:23 10° NNE 22:53:23 10° NNE 22:53:26 10° NNE visible
05 Sep 7.5 23:12:14 11° NNE 23:12:14 11° NNE 23:12:31 10° N visible
06 Sep 7.6 23:31:04 12° N 23:31:04 12° N 23:31:21 10° N visible
07 Sep 7.8 23:49:55 11° N 23:49:55 11° N 23:50:02 10° N visible
